Location: *
(46.1333°S, 161.2167°W)
Time: 04:36:41
(UTC+00:00)

BREEZE-M DEB (TANK) - Pass Details

Date: 15 July 2020
Orbit: 422 x 13862 km, 46.0° (Epoch: 10 August)

Event Time Altitude Azimuth Distance (km) Brightness Sun altitude
Exits shadow 16:06:51 16° 4° (N) 1,220 4.2 -22.7°
Drops below altitude 10° 16:07:47 10° 19° (NNE) 1,541 4.9 -22.6°
Sets 16:10:12 0° 38° (NE) 2,629 6.5 -22.1°
